This demonstration page uses our WeatherBlox Daily Observations layout. Learn more.

Left ArrowRight Arrow

Hourly Observations for January 15, 2015

Temp ( °F °C ) Dew Point ( °F °C ) Humidity (%) Winds ( mph kmh ) Pressure ( in mb ) Visibility ( mi km ) Precip ( " mm )
12:53 am 00:53 Clear 34 1.1 31 -0.6 89 89 Calm 30.21 1023 8 13 0.00 0.00
1:21 am 01:21 Clear with Mist and Fog 32 0 30 -1.1 92 92 Calm 30.24 1024 2 2 0.00 0.00
1:27 am 01:27 Mostly Cloudy with Fog 32 0 30 -1 93 93 Calm 30.24 1024 1 1 0.00 0.00
1:34 am 01:34 Mostly Cloudy with Mist and Fog 32 0 30 -1.1 92 92 Calm 30.24 1024 1 2 0.00 0.00
1:37 am 01:37 Mostly Clear with Mist and Fog 32 0 30 -1.1 92 92 Calm 30.24 1024 2 3 0.00 0.00
1:46 am 01:46 Mostly Clear 34 1 30 -1 87 87 Calm 30.24 1024 8 13 0.00 0.00
1:53 am 01:53 Clear 34 1.1 31 -0.6 89 89 Calm 30.21 1023 10 16 0.00 0.00
2:53 am 02:53 Clear 31 -0.6 28 -2.2 89 89 Calm 30.21 1023 8 13 0.00 0.00
3:46 am 03:46 Clear with Mist and Fog 30 -1 28 -2 93 93 Calm 30.24 1024 2 3 0.00 0.00
3:53 am 03:53 Mostly Clear with Mist and Fog 30 -1.1 28 -2.2 92 92 Calm 30.18 1022 1 2 0.00 0.00
4:06 am 04:06 Mostly Cloudy with Mist and Fog 30 -1 28 -2 93 93 Calm 30.24 1024 1 1 0.00 0.00
4:14 am 04:14 Mostly Clear with Mist and Fog 31 -0.6 29 -1.7 92 92 Calm 30.21 1023 1 2 0.00 0.00
4:19 am 04:19 Clear with Mist and Fog 31 -0.6 29 -1.7 92 92 Calm 30.21 1023 3 5 0.00 0.00
4:53 am 04:53 Partly Cloudy with Mist and Fog 31 -0.6 29 -1.7 92 92 Calm 30.16 1021 6 10 0.00 0.00
5:03 am 05:03 Mostly Cloudy with Mist and Fog 30 -1 28 -2 93 93 Calm 30.21 1023 4 6 0.00 0.00
5:53 am 05:53 Cloudy 32 0 29 -1.7 88 88 Calm 30.17 1022 7 11 0.00 0.00
6:28 am 06:28 Cloudy with Mist and Fog 32 0 30 -1 93 93 Calm 30.21 1023 5 8 0.00 0.00
6:53 am 06:53 Cloudy with Mist and Fog 33 0.6 31 -0.6 92 92 Calm 30.17 1022 1 2 0.00 0.00
6:55 am 06:55 Cloudy with Mist and Fog 33 0.6 31 -0.6 92 92 Calm 30.21 1023 2 3 0.00 0.00
7:08 am 07:08 Cloudy with Mist and Fog 34 1 30 -1 87 87 N 3 6 30.21 1023 1 2 0.00 0.00
7:24 am 07:24 Cloudy with Mist and Fog 34 1 30 -1 87 87 N 3 6 30.21 1023 2 3 0.00 0.00
7:32 am 07:32 Cloudy with Mist and Fog 34 1 32 0 93 93 NNW 3 6 30.21 1023 1 2 0.00 0.00
7:53 am 07:53 Cloudy with Mist and Fog 33 0.6 32 0 96 96 Calm 30.18 1022 1 2 0.00 0.00
7:59 am 07:59 Cloudy with Mist and Fog 33 0.6 32 0 96 96 Calm 30.24 1024 1 1 0.00 0.00
8:53 am 08:53 Cloudy with Mist and Fog 35 1.7 33 0.6 93 93 Calm 30.22 1023 1 1 0.00 0.00
8:59 am 08:59 Cloudy with Mist and Fog 35 1.7 34 1.1 96 96 Calm 30.24 1024 2 2 0.00 0.00
9:40 am 09:40 Cloudy with Mist and Fog 35 1.7 34 1.1 96 96 Calm 30.27 1025 2 3 0.00 0.00
9:53 am 09:53 Cloudy with Mist and Fog 36 2.2 34 1.1 93 93 Calm 30.24 1024 2 3 0.00 0.00
10:28 am 10:28 Cloudy with Mist and Fog 36 2 34 1 93 93 Calm 30.24 1024 3 5 0.00 0.00
10:40 am 10:40 Cloudy with Mist and Fog 36 2 36 2 100 100 Calm 30.24 1024 3 4 0.00 0.00
10:53 am 10:53 Cloudy with Mist and Fog 36 2.2 35 1.7 97 97 W 3 6 30.24 1024 3 5 0.00 0.00
11:53 am 11:53 Cloudy with Mist and Fog 37 2.8 35 1.7 93 93 Calm 30.20 1023 4 6 0.00 0.00
12:09 pm 12:09 Cloudy with Mist and Fog 38 3.3 35 1.7 89 89 Calm 30.24 1024 4 6 0.00 0.00
12:53 pm 12:53 Cloudy with Light Rain 37 2.8 35 1.7 93 93 Calm 30.18 1022 4 6 0.01 0.25
1:18 pm 13:18 Cloudy with Rain 37 3 36 2 93 93 Calm 30.24 1024 3 4 0.00 0.00
1:53 pm 13:53 Cloudy with Light Rain 38 3.3 35 1.7 89 89 WSW 3 6 30.17 1022 3 5 0.04 1.02
2:53 pm 14:53 Cloudy with Light Rain 38 3.3 36 2.2 93 93 Calm 30.17 1022 3 5 0.03 0.76
3:11 pm 15:11 Cloudy with Light Rain 39 3.9 36 2.2 89 89 SSW 3 6 30.21 1023 6 10 0.00 0.03
3:53 pm 15:53 Cloudy with Light Rain 38 3.3 36 2.2 93 93 SW 6 9 30.16 1021 5 8 0.01 0.25
4:53 pm 16:53 Cloudy 39 3.9 36 2.2 89 89 WNW 5 7 30.16 1021 9 14 0.01 0.25
5:03 pm 17:03 Cloudy 39 4 36 2 87 87 NNW 5 7 30.15 1021 9 14 0.00 0.00
5:53 pm 17:53 Cloudy 38 3.3 34 1.1 86 86 NNW 5 7 30.15 1021 10 16 0.00 0.00
6:00 pm 18:00 Cloudy 37 3 36 2 93 93 Calm 30.18 1022 10 16 0.00 0.00
6:38 pm 18:38 Cloudy 37 3 36 2 93 93 NW 3 6 30.21 1023 10 16 0.00 0.00
6:53 pm 18:53 Cloudy 38 3.3 34 1.1 86 86 WNW 7 11 30.17 1022 10 16 0.00 0.00
7:05 pm 19:05 Cloudy 38 3.3 34 1.1 86 86 WNW 6 9 30.21 1023 10 16 0.00 0.00
7:12 pm 19:12 Cloudy 37 3 34 1 87 87 NW 3 6 30.21 1023 10 16 0.00 0.00
7:53 pm 19:53 Cloudy with Light Rain 37 2.8 34 1.1 89 89 W 5 7 30.18 1022 9 14 0.00 0.03
8:53 pm 20:53 Cloudy 37 2.8 34 1.1 89 89 WNW 3 6 30.17 1022 9 14 0.00 0.03
9:15 pm 21:15 Cloudy 37 2.8 34 1.1 89 89 NW 5 7 30.21 1023 8 13 0.00 0.00
9:53 pm 21:53 Cloudy 37 2.8 33 0.6 86 86 NW 6 9 30.19 1022 8 13 0.00 0.00
10:27 pm 22:27 Cloudy 37 2.8 33 0.6 86 86 NW 8 13 30.24 1024 8 13 0.00 0.00
10:37 pm 22:37 Cloudy 36 2.2 33 0.6 89 89 NNW 6 9 30.24 1024 8 13 0.00 0.00
10:42 pm 22:42 Cloudy 37 3 34 1 87 87 Calm 30.24 1024 8 13 0.00 0.00
10:53 pm 22:53 Cloudy 37 2.8 33 0.6 86 86 WNW 5 7 30.19 1022 9 14 0.00 0.00
11:05 pm 23:05 Cloudy 37 2.8 33 0.6 86 86 NW 5 7 30.24 1024 9 14 0.00 0.00
11:29 pm 23:29 Cloudy 37 2.8 33 0.6 86 86 WNW 5 7 30.24 1024 9 14 0.00 0.00
11:38 pm 23:38 Cloudy 37 3 34 1 87 87 WNW 6 9 30.24 1024 9 14 0.00 0.00
11:53 pm 23:53 Cloudy 37 2.8 33 0.6 86 86 WNW 6 9 30.19 1022 8 13 0.00 0.00

Powered by AerisWeather